CZ-6A DEB, 58202

Orbit data source: Space-Track

CZ-6A DEB, 58202 is space debris in SSO originally from a launch on Tue, 31 Oct 2023 UTC launched from the Taiyaun Space Center, China (TSC). Debris objects in space refer to the collection of defunct objects orbiting the Earth. Examples of debris include non-operational satellites, rocket bodies, and fragments generated from explosions, collisions, or faulty payload assembly.

Loading next visibility...
Identifier
58202, 2023-168D
Orbit
SSO
Country
Flag of CNCN / PRC
Related business
Manufacturer
SAST
Mission
Spacecraft
Bus & Motor
Unknown
Mass
~50 kg wet, ~50 kg dry
Launch date (UTC)
2023-10-31 (2 years ago)
Launch vehicle
Unknown
Launch site
Taiyaun Space Center, China (TSC)
Object type
Payload
Rocket body
Debris
Shape & HBR
Cone, 0.3 m
Radar Cross Section
0.159 m², Large (>1 m²)

Expand to show TLE details & history
Last TLE update: 5 hours ago

TLE from 5 hours ago
0 CZ-6A DEB
1 58202U 23168D   25260.98465230  .00019257  00000-0  10180-2 0  9995
2 58202  97.8018 279.4713 0005313 119.0364 241.1401 15.15511924102944
Epoch: 2025-09-17T23:37Z
TLE epoch observation values (Epoch: 2025-09-17T23:37:53.958Z)
Latitude
0.00002°
Longitude
-72.15628°
Altitude
524.268 km
Speed
7.6 km/s
True Right ascension
18h 37m 53s
True Declination
0° 00' 00"
Sunlit
Object was in daylight at epoch
Visualization orbit readout
Latitude
Unknown
Longitude
Unknown
Altitude
Unknown
Speed
Unknown
Apparent Right ascension
Unknown
Apparent Declination
Unknown
Sunlit
N/A
Visualization observer readout
Local Sidereal Time
21:23:19
Azimuth
Unknown
Elevation
Unknown
Doppler factor
Unknown
Orbital elements
Apogee altitude
520.077 km
Perigee altitude
512.751 km
Semi-major axis
6,894.551 km
Eccentricity
0.00053
Inclination
97.8018°
RAAN
279.4713°
Arg. of periapsis
119.0364°
True anomaly
241.0868°
Mean anomaly
241.1401°
Eccentric anomaly
241.11345°
Mean motion
3.79127 °/min
Orbital period
94.96 mins
BSTAR
0.001018
Loading maneuver chart data...
Computing Atmospheric mass density...
Loading historical data...
Loading historical data...
Loading historical data...
Loading historical data...
Loading historical data...
Loading historical data...
Loading historical data...
Other satellites on launch #168 in the year 2023 (2023-10-31 UTC)

Documentation

Showing up to 5 results
|